Printer-friendly version
Follow the MPC on Twitter Follow the MPC on Facebook Follow the MPC on Google+ The MPC blog See all the MPC RSS feeds

MPEC 2011-L41 : COMET P/2000 G1 = 2011 L5 (LINEAR)

The following Minor Planet Electronic Circular may be linked-to from your own Web pages, but must not otherwise be redistributed electronically.

A form allowing access to any MPEC is at the bottom of this page.


Read MPEC 2011-L40 Read MPEC 2011-L42


M.P.E.C. 2011-L41                                Issued 2011 June 11, 15:27 UT

     The Minor Planet Electronic Circulars contain information on unusual
         minor planets and routine data on comets.  They are published
   on behalf of Commission 20 of the International Astronomical Union by the
          Minor Planet Center, Smithsonian Astrophysical Observatory,
                          Cambridge, MA 02138, U.S.A.

             Prepared using the Tamkin Foundation Computer Network

                              MPC@CFA.HARVARD.EDU
            URL http://www.minorplanetcenter.net/    ISSN 1523-6714

                      COMET P/2000 G1 = 2011 L5 (LINEAR)

Observations:
    PK11L050  C2011 06 09.41994 20 53 47.26 -03 02 27.4          22.7 ToEL041291
    PK11L050 HC2011 06 09.42695 20 53 47.06 -03 02 26.3                oEL041291
    PK11L050 HC2011 06 09.43421 20 53 46.77 -03 02 25.7                oEL041291
    PK11L050 HC2011 06 10.42409 20 53 17.22 -03 00 57.9                oEL041291
    PK11L050 HC2011 06 10.42820 20 53 16.96 -03 00 56.2                oEL041291
    PK11L050 HC2011 06 10.43388 20 53 16.84 -03 00 58.0                oEL041291
    PK11L050 HC2011 06 10.43803 20 53 16.72 -03 00 56.8                oEL041291
    PK11L050 HC2011 06 10.44174 20 53 16.62 -03 00 56.8                oEL041291
    PK11L050 HC2011 06 10.44677 20 53 16.38 -03 00 57.1                oEL041291
    PK11L050 HC2011 06 10.45125 20 53 16.26 -03 00 56.7                oEL041291

Observer details:
291 LPL/Spacewatch II.  Observer J. V. Scotti.  1.8-m f/2.7 reflector + CCD.

Orbital elements:
    P/2000 G1 = 2011 L5 (LINEAR)
Epoch 2010 Nov. 20.0 TT = JDT 2455520.5
T 2010 Nov. 13.69960 TT                                 MPC
q   1.0001207            (2000.0)            P               Q
n   0.18447342     Peri.  343.30056     -0.99415286     -0.10235523
a   3.0561889      Node   190.99715     +0.10753063     -0.96750847
e   0.6727556      Incl.   10.38969     -0.00986207     -0.23119423
P   5.34
From 146 observations 2000 Apr. 7-2011 June 10, mean residual 0".71.

    P/2000 G1 = 2011 L5 (LINEAR)
Epoch 2005 July 9.0 TT = JDT 2453560.5
T 2005 July 13.77969 TT                                 MPC
q   0.9984763            (2000.0)            P               Q
n   0.18463703     Peri.  343.34818     -0.99421027     -0.10180729
a   3.0543831      Node   190.98105     +0.10698873     -0.96759062
e   0.6731005      Incl.   10.39474     -0.00996762     -0.23109235
P   5.34
From 146 observations 2000 Apr. 7-2011 June 10, mean residual 0".71.

    P/2000 G1 = 2011 L5 (LINEAR)
Epoch 2000 Feb. 26.0 TT = JDT 2451600.5
T 2000 Mar.  9.81037 TT                                 MPC
q   1.0028965            (2000.0)            P               Q
n   0.18404997     Peri.  343.28806     -0.99419229     -0.10195183
a   3.0608747      Node   191.03289     +0.10715442     -0.96748257
e   0.6723497      Incl.   10.37376     -0.00998057     -0.23148068
P   5.36
From 146 observations 2000 Apr. 7-2011 June 10, mean residual 0".71.

Residuals in seconds of arc
000407 704  0.5+  0.1+    000415 118  0.2-  0.7-    000503 360  0.6+  0.9+
000407 704  0.8+  0.8-    000415 118  0.7+  0.1-    000503 360  0.3+  0.5+
000408 046  0.1-  0.7-    000415 046  0.2-  0.0     000503 900  1.9-  0.7-
000408 046  0.4+  0.0     000415 046  0.5+  0.1+    000503 900  0.2-  0.1-
000408 046  0.4-  0.0     000415 046  0.4+  0.3-    000504 704  0.2+  0.1-
000408 046  1.8-  1.6+    000415 046  0.3+  0.0     000504 704  0.1-  0.5-
000408 734  0.2-  0.8+    000415 046  0.2+  0.1-    000504 704  1.3+  1.0+
000408 734  0.2-  0.3+    000416 349  0.7-  0.6+    000504 704  0.0   0.7+
000408 734  0.9-  1.2-    000416 349  0.8+  0.9+    000504 900  0.2-  0.8+
000409 046  0.4+  0.3+    000416 349  0.6-  0.9+    000504 900  0.3+  0.3+
000409 046  0.6+  0.4-    000419 850  0.4+  0.9-    000508 900  0.7-  0.8+
000409 046  0.3+  0.3+    000419 850  0.2+  1.9-    000508 900  1.4-  0.5+
000409 046  0.3+  0.1-    000419 850  0.4+  0.8-    000511 118  0.1+  0.2+
000409 046  0.1+  0.0     000419 850  0.0   1.3-    000511 118  0.2+  0.9+
000409 046  0.7+  0.1-    000423 349  0.5-  0.2+    000511 118  0.3-  0.9+
000410 850  0.7-  0.8-    000423 349  0.9+  0.5-    000513 658  0.5+  0.7+
000410 850  0.6-  1.4-    000423 349  0.4+  0.3-    000513 658  0.4+  0.7+
000410 850  0.8-  1.3-    000424 402 (2.2+  0.8-)   000513 402  0.0   0.4+
000410 850  1.1-  0.4-    000424 402  0.6+  0.1+    000513 402  0.5+  0.4+
000410 850  0.2-  0.7-    000424 402  0.4+  0.2+    000513 402  0.2-  0.6+
000410 850 (2.1-  0.8+)   000427 704  0.3+  0.4+    000514 118  0.1-  0.3+
000410 850  0.5+  1.7-    000427 704  0.7-  1.1-    000514 118  0.3-  0.4+
000410 372  1.7-  0.2-    000427 704  0.2+  0.1+    000514 349  1.0-  0.7+
000410 372  0.4-  0.6-    000427 704  0.0   0.4-    000514 349 (2.5-  0.8+)
000411 402  0.1-  0.4-    000427 704  0.2+  0.6-    000529 402  0.1+  0.9+
000411 402  0.1-  0.3-    000427 704  0.5+  0.5-    000529 402  0.4+  0.3-
000411 402  0.1+  0.6-    000427 704  0.8+  1.3-    000529 402  0.2+  0.2+
000411 402  0.6+  0.1-    000427 704  1.2-  0.6-    000529 360  0.1+  0.7+
000412 704  0.5-  1.7+    000427 704  1.2-  0.1-    000529 360  0.0   0.9+
000412 704  0.3-  0.7-    000427 704  0.1+  0.1-    000601 704  1.2+  0.2+
000412 704  0.2-  0.6-    000427 704  0.5-  0.3-    000601 704  0.1+  1.2+
000412 372  0.7-  1.8+    000427 704  1.1-  0.4+    000601 704  0.8-  1.6+
000412 372  0.4-  1.4+    000428 118  0.1+  0.0     000607 695  0.0   1.3+
000412 360  0.8+  0.4+    000428 118  0.2+  0.3+    000607 695  0.0   1.3+
000412 360  0.8+  0.5+    000428 349  1.5+  1.2-    000607 360  0.1+  0.6+
000412 360  1.0+  0.5+    000428 349  1.5+  0.0     000607 360  0.5+  0.7+
000413 704  1.1+  0.5-    000429 118  0.0   0.4+    000607 402  0.3-  0.7+
000413 704  0.3+  0.5-    000429 118  0.2+  0.1-    000607 402  0.7-  1.1+
000413 704 (0.3+  2.5-)   000429 118  0.3+  0.2-    000607 402  0.7+  0.7+
000413 704  0.5-  0.6+    000429 402  1.0+  0.3-    000707 695  0.6-  1.1+
000413 704  0.8+  0.7-    000429 402  0.9+  0.4+    000707 695  0.2-  1.1+
000413 704 (0.1+  2.1-)   000501 348 (1.1+  2.0-)   000707 695  0.4-  1.1+
000413 704 (4.2-  0.6-)   000501 348  0.9-  0.1+    110609 291  0.3+  0.6-
000413 704 (1.5-  2.5-)   000501 903  0.2-  1.4-    110609 291  0.5+  0.1-
000413 704 (2.1-  0.2+)   000501 903  1.3-  1.1-    110609 291  0.5-  0.2-
000413 704 (2.7-  2.9-)   000501 402  0.9+  1.3-    110610 291  0.9+  0.5-
000414 860  0.7-  0.3+    000501 402  0.3-  1.0-    110610 291  1.0-  0.9+
000414 860  0.1-  0.1-    000502 118  0.1-  0.5+    110610 291  0.0   1.4-
000414 860  0.5-  1.2+    000502 118  0.1+  0.7+    110610 291  0.2+  0.5-
000414 704  0.6+  0.0     000502 860  1.2-  1.2+    110610 291  0.5+  0.8-
000414 704  0.1-  0.4-    000502 860  0.7-  0.2+    110610 291  0.6-  1.6-
000414 704  0.6+  0.2+    000503 360  0.6+  0.9+    110610 291  0.2-  1.5-

Ephemeris:
    P/2000 G1 (LINEAR)
Date    TT    R. A. (2000) Decl.     Delta      r     Elong.  Phase   m1    m2
2011 05 12    20 56 06.3 -04 49 01   1.9947  2.3220    95.6    25.7  22.7
...
2011 05 27    20 57 45.7 -03 38 20   1.9183  2.4423   108.9    23.1  22.8
...
2011 06 04    20 56 00.6 -03 13 25   1.8812  2.5051   116.6    21.2  22.9
...
2011 06 10    20 53 30.0 -03 01 31   1.8571  2.5515   122.6    19.6  22.9
2011 06 11    20 52 59.1 -03 00 08   1.8535  2.5591   123.6    19.3  22.9
2011 06 12    20 52 26.6 -02 58 56   1.8500  2.5668   124.6    19.0  22.9
...
2011 06 18    20 48 39.0 -02 55 24   1.8319  2.6125   130.9    17.1  23.0
...
2011 06 26    20 42 15.3 -03 00 52   1.8172  2.6724   139.4    14.3  23.1
...
2011 07 11    20 27 12.0 -03 41 48   1.8266  2.7823   155.2     8.8  23.3

Gareth V. Williams           (C) Copyright 2011 MPC           M.P.E.C. 2011-L41

Read MPEC 2011-L40 Read MPEC 2011-L42


MPEC number:

Enter an MPEC number in one of the following forms:

  • 1997-B01 (the full form)
  • J97B01 (the packed version of the full form)
  • B01 (the abbreviated form)

Valid HTML 4.01!